User: anonymous   Login
Location: Niedergestelen
(46.3129°N, 7.7822°E)
Time: 07:53:58
(UTC+00:00)
Language:

Cosmos 1603 - Orbit

View from above orbital plane
View from above orbital plane
View from above satellite
View from above satellite

Ground track
Ground track

The orbit data is extracted from the following two-line orbital elements,

1 15333U 84106A   21057.53030441 -.00000203  00000-0 -81662-4 0  9993
2 15333  71.0277 144.6445 0021850 306.9022  53.0098 14.14115394879155
Epoch (UTC): 26 February 2021 12:43:38
Eccentricity: 0.0021850
inclination: 71.0277°
perigee height: 829 km
apogee height: 861 km
right ascension of ascending node: 144.6445°
argument of perigee: 306.9022°
revolutions per day: 14.14115394
mean anomaly at epoch: 53.0098°
orbit number at epoch: 87915

The dashed part of the orbit path shows where the satellite is in the earth's shadow,  

DLR